Location: *
(37.9500°N, 27.3666°E)
Time: 13:25:12
(UTC+00:00)

Milstar 3 Cent rocket - Pass Details

Date: 24 October 2021
Orbit: 706 x 5147 km, 28.3° (Epoch: 02 December)

Event Time Altitude Azimuth Distance (km) Brightness Sun altitude
Rises 15:38:50 0° 202° (SSW) 3,220 5.8 -4.3°
Reaches altitude 10° 15:41:58 10° 178° (S) 2,547 4.8 -4.9°
Maximum altitude 15:45:23 16° 142° (SE) 2,531 4.4 -5.5°
Drops below altitude 10° 15:49:50 10° 108° (ESE) 3,511 4.9 -6.4°
Enters shadow 15:52:23 - 98° (E) 4,292 5.2 -6.9°
